GDVOR EGBM-EGBM

Flight info

Callsign GDVOR
Flight time N/A
Altitude 3000
Route TNT
Aircraft AC50/L-SDCGY/S

Departure

Time 2026-04-29 15:32
Airport Tatenhill Airfield (EGBM)

Arrival

Time N/A
Airport Tatenhill Airfield (EGBM)
Time Latitude Longitude Altitude Speed Heading
2026-04-29 15:12 52.81611 -1.75641 443 ft 0 kts 164°
2026-04-29 15:26 52.81606 -1.75638 443 ft 4 kts 159°
2026-04-29 15:26 52.81622 -1.75601 443 ft 7 kts 324°
2026-04-29 15:27 52.81622 -1.75682 443 ft 6 kts 271°
2026-04-29 15:27 52.81628 -1.75740 443 ft 3 kts 288°
2026-04-29 15:27 52.81643 -1.75791 443 ft 6 kts 302°
2026-04-29 15:27 52.81672 -1.75872 443 ft 10 kts 288°
2026-04-29 15:28 52.81683 -1.76032 440 ft 16 kts 275°
2026-04-29 15:28 52.81699 -1.76246 436 ft 20 kts 277°
2026-04-29 15:28 52.81741 -1.76459 434 ft 16 kts 291°
2026-04-29 15:28 52.81748 -1.76543 433 ft 4 kts 230°
2026-04-29 15:29 52.81743 -1.76551 432 ft 0 kts 220°
2026-04-29 15:29 52.81702 -1.76598 432 ft 6 kts 213°
2026-04-29 15:30 52.81577 -1.76721 428 ft 19 kts 209°
2026-04-29 15:30 52.81445 -1.76840 426 ft 21 kts 207°
2026-04-29 15:30 52.81393 -1.76882 424 ft 1 kts 204°
2026-04-29 15:30 52.81365 -1.76897 423 ft 6 kts 198°
2026-04-29 15:31 52.81327 -1.76865 423 ft 8 kts 86°
2026-04-29 15:31 52.81329 -1.76853 424 ft 7 kts 71°
2026-04-29 15:32 52.81386 -1.76584 427 ft 64 kts 73°
2026-04-29 15:32 52.81602 -1.75668 639 ft 90 kts 54°
2026-04-29 15:32 52.81944 -1.74861 1064 ft 85 kts 53°
2026-04-29 15:32 52.82283 -1.74097 1439 ft 84 kts 52°
2026-04-29 15:33 52.82622 -1.73331 1800 ft 83 kts 52°
2026-04-29 15:33 52.82960 -1.72556 2151 ft 83 kts 59°
2026-04-29 15:33 52.83041 -1.71638 2479 ft 83 kts 104°
2026-04-29 15:33 52.82812 -1.70778 2809 ft 83 kts 103°
2026-04-29 15:34 52.82875 -1.69873 3108 ft 85 kts 55°
2026-04-29 15:34 52.83456 -1.69195 3066 ft 121 kts 10°
2026-04-29 15:34 52.84360 -1.69064 3022 ft 135 kts 360°
2026-04-29 15:34 52.85283 -1.69021 3008 ft 133 kts 359°
2026-04-29 15:35 52.86250 -1.68978 3014 ft 145 kts 359°
2026-04-29 15:35 52.87300 -1.68934 3013 ft 154 kts 359°
2026-04-29 15:35 52.88388 -1.68889 3011 ft 160 kts 359°
2026-04-29 15:35 52.89521 -1.68845 3010 ft 164 kts 359°
2026-04-29 15:36 52.90677 -1.68800 3009 ft 167 kts 360°
2026-04-29 15:36 52.91831 -1.68757 3009 ft 168 kts 360°
2026-04-29 15:36 52.93016 -1.68712 3009 ft 169 kts 360°
2026-04-29 15:36 52.94185 -1.68669 3009 ft 170 kts 360°
2026-04-29 15:37 52.95370 -1.68610 3007 ft 170 kts
2026-04-29 15:37 52.96554 -1.68501 3008 ft 170 kts
2026-04-29 15:37 52.97731 -1.68383 3006 ft 171 kts
2026-04-29 15:37 52.98915 -1.68043 3001 ft 171 kts 13°
2026-04-29 15:38 53.00046 -1.67485 3007 ft 171 kts 15°
2026-04-29 15:38 53.01194 -1.66951 3013 ft 170 kts
2026-04-29 15:38 53.02362 -1.66868 3012 ft 171 kts 359°
2026-04-29 15:38 53.03560 -1.66850 3009 ft 171 kts 359°
2026-04-29 15:39 53.04744 -1.66835 3009 ft 171 kts 359°
2026-04-29 15:39 53.05925 -1.66733 2990 ft 172 kts 12°
2026-04-29 15:39 53.06884 -1.65612 2984 ft 171 kts 54°
2026-04-29 15:39 53.07151 -1.63736 2984 ft 171 kts 96°
2026-04-29 15:40 53.06604 -1.62037 2984 ft 170 kts 137°
2026-04-29 15:40 53.05514 -1.61328 2995 ft 170 kts 172°
2026-04-29 15:40 53.04348 -1.61210 3006 ft 170 kts 176°
2026-04-29 15:40 53.03160 -1.61133 3008 ft 170 kts 176°
2026-04-29 15:41 53.01979 -1.61059 3009 ft 170 kts 176°
2026-04-29 15:41 53.00805 -1.60984 3009 ft 170 kts 176°
2026-04-29 15:41 52.99628 -1.61049 2986 ft 172 kts 195°
2026-04-29 15:41 52.98693 -1.62226 2984 ft 171 kts 237°
2026-04-29 15:42 52.98466 -1.64102 2984 ft 171 kts 278°
2026-04-29 15:42 52.99049 -1.65773 2984 ft 170 kts 319°
2026-04-29 15:42 53.00151 -1.66418 2994 ft 170 kts 354°
2026-04-29 15:42 53.01323 -1.66470 3006 ft 170 kts 358°
2026-04-29 15:43 53.02507 -1.66478 3008 ft 170 kts 358°
2026-04-29 15:43 53.03683 -1.66484 3009 ft 170 kts 358°
2026-04-29 15:43 53.04867 -1.66491 3009 ft 171 kts 358°
2026-04-29 15:43 53.06058 -1.66474 2999 ft 171 kts
2026-04-29 15:44 53.07095 -1.65564 2985 ft 171 kts 47°
2026-04-29 15:44 53.07502 -1.63764 2984 ft 171 kts 89°
2026-04-29 15:44 53.07089 -1.61960 2983 ft 170 kts 130°
2026-04-29 15:44 53.06064 -1.61058 2988 ft 170 kts 169°
2026-04-29 15:45 53.04884 -1.60930 3004 ft 170 kts 176°
2026-04-29 15:45 53.03711 -1.60886 3008 ft 170 kts 177°
2026-04-29 15:45 53.02531 -1.60843 3009 ft 170 kts 177°
2026-04-29 15:45 53.01337 -1.60799 3009 ft 171 kts 177°
2026-04-29 15:46 53.00179 -1.60987 2990 ft 172 kts 201°
2026-04-29 15:46 52.99335 -1.62330 2989 ft 171 kts 244°
2026-04-29 15:46 52.99251 -1.64253 2988 ft 171 kts 285°
2026-04-29 15:46 52.99958 -1.65768 2988 ft 170 kts 327°
2026-04-29 15:47 53.01093 -1.66242 3002 ft 170 kts 354°
2026-04-29 15:47 53.02276 -1.66338 3008 ft 170 kts 356°
2026-04-29 15:47 53.03468 -1.66451 3010 ft 171 kts 354°
2026-04-29 15:47 53.04648 -1.66681 3010 ft 171 kts 351°
2026-04-29 15:48 53.05801 -1.66371 2991 ft 171 kts 29°
2026-04-29 15:48 53.06528 -1.64892 2989 ft 171 kts 70°
2026-04-29 15:48 53.06475 -1.62953 2988 ft 171 kts 112°
2026-04-29 15:48 53.05664 -1.61587 2988 ft 171 kts 154°
2026-04-29 15:49 53.04501 -1.61231 3004 ft 170 kts 173°
2026-04-29 15:49 53.03317 -1.61082 3008 ft 170 kts 174°
2026-04-29 15:49 53.02135 -1.60941 3009 ft 171 kts 174°
2026-04-29 15:49 53.00953 -1.60800 3009 ft 171 kts 174°
2026-04-29 15:50 52.99775 -1.60839 2989 ft 172 kts 196°
2026-04-29 15:50 52.98853 -1.62037 2989 ft 171 kts 238°
2026-04-29 15:50 52.98652 -1.63927 2988 ft 171 kts 279°
2026-04-29 15:50 52.99153 -1.65717 3003 ft 170 kts 300°
2026-04-29 15:51 52.99931 -1.67147 2990 ft 171 kts 330°
2026-04-29 15:51 53.01087 -1.67418 2989 ft 171 kts 12°
2026-04-29 15:51 53.02200 -1.66767 3013 ft 169 kts
2026-04-29 15:51 53.03367 -1.66802 3013 ft 170 kts 356°
2026-04-29 15:52 53.04487 -1.67355 3022 ft 170 kts 331°
2026-04-29 15:52 53.05526 -1.68318 3011 ft 171 kts 329°
2026-04-29 15:52 53.06552 -1.69289 3009 ft 169 kts 329°
2026-04-29 15:52 53.07565 -1.70249 3008 ft 168 kts 329°
2026-04-29 15:53 53.08574 -1.71210 3009 ft 167 kts 327°
2026-04-29 15:53 53.09237 -1.72714 3028 ft 165 kts 281°
2026-04-29 15:53 53.09014 -1.74551 3033 ft 165 kts 233°
2026-04-29 15:53 53.08017 -1.75267 2846 ft 175 kts 172°
2026-04-29 15:54 53.06998 -1.74302 2880 ft 169 kts 134°
2026-04-29 15:54 53.06190 -1.72880 2875 ft 168 kts 131°
2026-04-29 15:54 53.05402 -1.71438 2875 ft 167 kts 129°
2026-04-29 15:54 53.04901 -1.69769 2891 ft 166 kts 93°
2026-04-29 15:55 53.04987 -1.67867 2874 ft 166 kts 88°
2026-04-29 15:55 53.04777 -1.65982 2863 ft 167 kts 115°
2026-04-29 15:55 53.04185 -1.64339 2867 ft 166 kts 125°
2026-04-29 15:55 53.03229 -1.63332 2855 ft 166 kts 166°
2026-04-29 15:56 53.02089 -1.63166 2870 ft 166 kts 176°
2026-04-29 15:56 53.00934 -1.63106 2873 ft 166 kts 176°
2026-04-29 15:56 52.99780 -1.63049 2874 ft 166 kts 176°
2026-04-29 15:56 52.98635 -1.62993 2874 ft 166 kts 176°
2026-04-29 15:57 52.97502 -1.62707 2885 ft 165 kts 150°
2026-04-29 15:57 52.96805 -1.61261 2897 ft 164 kts 103°
2026-04-29 15:57 52.96977 -1.59453 2898 ft 164 kts 56°
2026-04-29 15:57 52.97900 -1.58433 2899 ft 164 kts
2026-04-29 15:58 52.99032 -1.58299 2881 ft 166 kts 360°
2026-04-29 15:58 53.00198 -1.58261 2875 ft 166 kts 359°
2026-04-29 15:58 53.01349 -1.58225 2874 ft 166 kts 359°
2026-04-29 15:58 53.02514 -1.58190 2874 ft 166 kts 359°
2026-04-29 15:59 53.03658 -1.58155 2874 ft 166 kts 359°
2026-04-29 15:59 53.04818 -1.58120 2874 ft 166 kts 359°
2026-04-29 15:59 53.05966 -1.58085 2874 ft 166 kts 359°
2026-04-29 15:59 53.07114 -1.58307 2886 ft 165 kts 332°
2026-04-29 16:00 53.07830 -1.59716 2897 ft 164 kts 285°
2026-04-29 16:00 53.07693 -1.61529 2898 ft 164 kts 237°
2026-04-29 16:00 53.06819 -1.62715 2898 ft 164 kts 200°
2026-04-29 16:00 53.05873 -1.63759 2871 ft 166 kts 223°
2026-04-29 16:01 53.05068 -1.65118 2875 ft 166 kts 222°
2026-04-29 16:01 53.04211 -1.66414 2876 ft 166 kts 216°
2026-04-29 16:01 53.03141 -1.67009 2891 ft 165 kts 181°
2026-04-29 16:01 53.01992 -1.66858 2880 ft 166 kts 171°
2026-04-29 16:02 53.00847 -1.66666 2873 ft 166 kts 175°
2026-04-29 16:02 52.99697 -1.66647 2860 ft 167 kts 188°
2026-04-29 16:02 52.98695 -1.67575 2869 ft 166 kts 224°
2026-04-29 16:02 52.98251 -1.69283 2843 ft 167 kts 266°
2026-04-29 16:03 52.98613 -1.71071 2841 ft 166 kts 308°
2026-04-29 16:03 52.99604 -1.71997 2843 ft 166 kts 349°
2026-04-29 16:03 53.00749 -1.72087 2857 ft 165 kts 358°
2026-04-29 16:03 53.01891 -1.72077 2861 ft 165 kts 359°
2026-04-29 16:04 53.03043 -1.72064 2861 ft 166 kts 359°
2026-04-29 16:04 53.04193 -1.72051 2861 ft 166 kts 359°
2026-04-29 16:04 53.05354 -1.72038 2861 ft 166 kts 359°
2026-04-29 16:04 53.06471 -1.71681 2843 ft 167 kts 29°
2026-04-29 16:05 53.07186 -1.70212 2841 ft 166 kts 71°
2026-04-29 16:05 53.07127 -1.68339 2841 ft 166 kts 112°
2026-04-29 16:05 53.06335 -1.67013 2841 ft 165 kts 154°
2026-04-29 16:05 53.05208 -1.66687 2855 ft 165 kts 175°
2026-04-29 16:06 53.04065 -1.66614 2860 ft 165 kts 176°
2026-04-29 16:06 53.02916 -1.66553 2861 ft 166 kts 176°
2026-04-29 16:06 53.01763 -1.66492 2861 ft 166 kts 176°
2026-04-29 16:06 53.00609 -1.66430 2861 ft 166 kts 176°
2026-04-29 16:07 52.99506 -1.66874 2843 ft 166 kts 213°
2026-04-29 16:07 52.98857 -1.68417 2841 ft 166 kts 255°
2026-04-29 16:07 52.98989 -1.70254 2841 ft 166 kts 296°
2026-04-29 16:07 52.99839 -1.71503 2841 ft 165 kts 338°
2026-04-29 16:08 53.00977 -1.71738 2855 ft 165 kts 357°
2026-04-29 16:08 53.02113 -1.71751 2860 ft 165 kts 358°
2026-04-29 16:08 53.03265 -1.71754 2861 ft 166 kts 358°
2026-04-29 16:08 53.04428 -1.71757 2861 ft 166 kts 358°
2026-04-29 16:09 53.05573 -1.71756 2860 ft 166 kts
2026-04-29 16:09 53.06633 -1.71052 2842 ft 166 kts 42°
2026-04-29 16:09 53.07129 -1.69367 2841 ft 166 kts 83°
2026-04-29 16:09 53.06826 -1.67567 2841 ft 166 kts 125°
2026-04-29 16:10 53.05880 -1.66558 2841 ft 165 kts 166°
2026-04-29 16:10 53.04744 -1.66428 2857 ft 165 kts 178°
2026-04-29 16:10 53.03591 -1.66417 2861 ft 165 kts 177°
2026-04-29 16:10 53.02476 -1.65992 2857 ft 166 kts 154°
2026-04-29 16:11 53.01447 -1.65193 2974 ft 158 kts 168°
2026-04-29 16:11 53.00385 -1.65091 3198 ft 148 kts 178°
2026-04-29 16:11 52.99382 -1.65092 3383 ft 143 kts 178°
2026-04-29 16:11 52.98407 -1.65090 3543 ft 141 kts 175°
2026-04-29 16:12 52.97428 -1.64896 3657 ft 142 kts 175°
2026-04-29 16:12 52.96393 -1.64873 3553 ft 157 kts 178°
2026-04-29 16:12 52.95268 -1.64871 3433 ft 167 kts 178°
2026-04-29 16:12 52.94077 -1.64867 3309 ft 173 kts 178°
2026-04-29 16:13 52.92857 -1.64862 3185 ft 177 kts 178°
2026-04-29 16:13 52.91631 -1.64857 3061 ft 179 kts 179°
2026-04-29 16:13 52.90393 -1.64852 2924 ft 168 kts 179°
2026-04-29 16:13 52.89339 -1.64857 2769 ft 136 kts 178°
2026-04-29 16:14 52.88472 -1.64867 2615 ft 113 kts 178°
2026-04-29 16:14 52.87742 -1.64877 2477 ft 101 kts 178°
2026-04-29 16:14 52.87056 -1.64888 2361 ft 96 kts 178°
2026-04-29 16:14 52.86401 -1.64897 2232 ft 94 kts 178°
2026-04-29 16:15 52.85789 -1.64664 2119 ft 90 kts 144°
2026-04-29 16:15 52.85285 -1.64004 2001 ft 93 kts 137°
2026-04-29 16:15 52.84787 -1.63294 1879 ft 96 kts 137°
2026-04-29 16:15 52.84279 -1.62560 1757 ft 98 kts 136°
2026-04-29 16:16 52.83763 -1.61793 1640 ft 103 kts 136°
2026-04-29 16:16 52.83220 -1.60985 1538 ft 104 kts 136°
2026-04-29 16:16 52.82735 -1.60086 1444 ft 105 kts 111°
2026-04-29 16:16 52.82643 -1.58922 1360 ft 104 kts 88°
2026-04-29 16:17 52.82655 -1.57766 1251 ft 97 kts 86°
2026-04-29 16:17 52.82672 -1.56685 1145 ft 93 kts 86°
2026-04-29 16:17 52.82690 -1.55630 1077 ft 88 kts 86°
2026-04-29 16:17 52.82708 -1.54626 1015 ft 85 kts 86°
2026-04-29 16:18 52.82726 -1.53676 968 ft 80 kts 86°
2026-04-29 16:18 52.82743 -1.52758 965 ft 80 kts 86°
2026-04-29 16:18 52.82761 -1.51838 988 ft 80 kts 86°
2026-04-29 16:18 52.82778 -1.50920 1016 ft 81 kts 86°
2026-04-29 16:19 52.82796 -1.49968 1099 ft 85 kts 86°
2026-04-29 16:19 52.82815 -1.48964 1248 ft 89 kts 86°
2026-04-29 16:19 52.82834 -1.47919 1488 ft 90 kts 86°
2026-04-29 16:19 52.82850 -1.46904 1746 ft 91 kts 86°
2026-04-29 16:20 52.82874 -1.45696 1683 ft 117 kts 86°
2026-04-29 16:20 52.82930 -1.44322 1510 ft 120 kts 80°
2026-04-29 16:20 52.82990 -1.42979 1229 ft 115 kts 92°
2026-04-29 16:20 52.82964 -1.41703 991 ft 107 kts 90°
2026-04-29 16:21 52.82963 -1.40527 869 ft 99 kts 90°
2026-04-29 16:21 52.82973 -1.39404 845 ft 98 kts 89°
2026-04-29 16:21 52.82983 -1.38263 796 ft 101 kts 88°
2026-04-29 16:21 52.83013 -1.37076 672 ft 104 kts 87°
2026-04-29 16:22 52.83042 -1.35885 497 ft 101 kts 86°
2026-04-29 16:22 52.83064 -1.34785 335 ft 89 kts 88°
2026-04-29 16:22 52.83079 -1.33877 305 ft 70 kts 89°
2026-04-29 16:22 52.83097 -1.33176 298 ft 53 kts 89°
2026-04-29 16:23 52.83101 -1.32671 294 ft 19 kts 88°
2026-04-29 16:23 52.83011 -1.32697 290 ft 16 kts 223°
2026-04-29 16:23 52.82937 -1.32824 290 ft 14 kts 248°
2026-04-29 16:23 52.82929 -1.32975 291 ft 12 kts 266°
2026-04-29 16:24 52.82927 -1.33127 294 ft 13 kts 271°
2026-04-29 16:24 52.82922 -1.33290 297 ft 14 kts 265°
2026-04-29 16:24 52.82918 -1.33461 300 ft 15 kts 261°
2026-04-29 16:24 52.82898 -1.33616 301 ft 12 kts 205°
2026-04-29 16:25 52.82813 -1.33610 298 ft 12 kts 180°
2026-04-29 16:25 52.82732 -1.33582 295 ft 12 kts 88°
2026-04-29 16:25 52.82770 -1.33518 297 ft 2 kts 83°
2026-04-29 16:25 52.82770 -1.33484 297 ft 3 kts 86°
2026-04-29 16:26 52.82770 -1.33481 297 ft 0 kts 84°